User: anonymous   Login
Location: Chiroubles
(46.1812°N, 4.6660°E)
Time: 17:42:47
(UTC+00:00)
Language:

Tiros 1 - Orbit

View from above orbital plane
View from above orbital plane
View from above satellite
View from above satellite

Ground track
Ground track

The orbit data is extracted from the following two-line orbital elements,

1 00029U 60002B   21127.67857315 -.00000126  00000-0  12218-4 0  9992
2 00029  48.3792 218.4263 0024170 181.0539 179.0326 14.74425906266388
Epoch (UTC): 07 May 2021 16:17:08
Eccentricity: 0.0024170
inclination: 48.3792°
perigee height: 630 km
apogee height: 664 km
right ascension of ascending node: 218.4263°
argument of perigee: 181.0539°
revolutions per day: 14.74425906
mean anomaly at epoch: 179.0326°
orbit number at epoch: 26638

The dashed part of the orbit path shows where the satellite is in the earth's shadow,  

DLR